EHI
0 0 0 0 0 0 0 0 0 0 0 0 0 0 0 0 0 0 0 0 0 0 0 0 0 0 0 0 0 0 0 0 0 0 0 2 11 21
0 0 0 0 0 0 0 0 0 0 0 0 0 0 0 0 0 0 0 0 0 0 0 0 0 0 0 0 0 0 0 0 0 0 0 4 19 33
0 0 0 0 0 0 0 0 0 0 0 0 0 0 0 0 0 0 0 0 0 0 0 0 0 0 0 0 0 0 0 0 0 0 0 6 21 35
0 0 0 0 0 0 0 0 0 0 0 0 0 0 0 0 0 0 0 0 0 0 0 0 0 0 0 0 0 0 0 0 0 0 0 3 10 15
0 0 0 0 0 0 0 0 0 0 0 0 0 0 0 0 0 0 0 0 0 0 0 0 0 0 0 0 0 0 0 0 0 0 0 0 1 1
0 0 0 0 0 0 0 0 0 0 0 0 0 0 0 0 0 0 0 0 0 0 0 0 0 0 0 0 0 0 0 0 0 0 0 0 0 0
0 0 0 0 0 0 0 0 0 0 0 0 0 0 0 0 0 0 0 0 0 0 0 0 0 0 0 0 0 0 0 0 0 0 0 0 0 0
0 0 0 0 0 0 0 0 0 0 0 0 0 0 0 0 0 0 0 0 0 0 0 0 0 0 0 0 0 0 0 0 0 0 0 0 0 0
0 0 0 0 0 0 0 0 0 0 0 0 0 0 0 0 0 0 0 0 0 0 0 0 0 0 0 0 0 0 0 0 0 0 0 0 0 0
0 0 0 0 0 0 0 0 0 0 0 0 0 0 0 0 0 0 0 0 0 0 0 0 0 0 0 0 0 0 0 0 0 0 0 0 0 0
0 0 0 0 0 0 0 0 0 0 0 0 0 0 0 0 0 0 0 0 0 0 0 0 0 0 0 0 0 0 0 0 0 0 0 0 0 0
0 0 0 0 0 0 0 0 0 0 0 0 0 0 0 0 0 0 0 0 0 0 0 0 0 0 0 0 0 0 0 0 0 0 0 0 0 0
0 0 0 0 0 0 0 0 0 0 0 0 0 0 0 0 0 0 0 0 0 0 0 0 0 0 0 0 0 0 0 0 0 0 0 0 0 0
0 0 0 0 0 0 0 0 0 0 0 0 0 0 0 0 0 0 0 0 0 0 0 0 0 0 0 0 0 0 0 0 0 0 0 0 0 0
0 0 0 0 0 0 0 0 0 0 0 0 0 0 0 0 0 0 0 0 0 0 0 0 0 0 0 0 0 0 0 0 0 0 0 0 0 0
0 0 0 0 0 0 0 0 0 0 0 0 0 0 0 0 0 0 0 0 0 0 0 0 0 0 0 0 0 0 0 0 0 0 0 0 0 0
0 0 0 0 0 0 0 0 0 0 0 0 0 0 0 0 0 0 0 0 0 0 0 0 0 0 0 0 0 0 0 0 0 0 0 0 0 0
0 0 0 0 0 0 0 0 0 0 0 0 0 0 0 0 0 0 0 0 0 0 0 0 0 0 0 0 0 0 0 0 0 0 0 0 0 0
0 0 0 0 0 0 0 0 0 0 0 0 0 0 0 0 0 0 0 0 0 0 0 0 0 0 0 0 0 0 0 0 0 0 0 0 0 0
0 0 0 0 0 0 0 0 0 0 0 0 0 0 0 0 0 0 0 0 0 0 0 0 0 0 0 0 0 0 0 0 0 0 0 0 0 0
0 0 0 0 0 0 0 0 0 0 0 0 0 0 0 0 0 0 0 0 0 0 0 0 0 0 0 0 0 0 0 0 0 0 0 0 0 0
0 0 0 0 0 0 0 0 0 0 0 0 0 0 0 0 0 0 0 0 0 0 0 0 0 0 0 0 0 0 0 0 0 0 0 0 0 0
0 0 0 0 0 0 0 0 0 0 0 0 0 0 0 0 0 0 0 0 0 0 0 0 0 0 0 0 0 0 0 0 0 0 0 0 0 0
Wind_Speed
7 8 7 6 6 6 6 6 7 9 9 7 7 7 6 6 7 5 1 6 7 7 8 10 13 17 20 24 26 28 29 29 28 25 23 21 19 18
6 7 7 5 5 5 6 6 7 9 8 4 7 8 8 10 11 3 2 8 8 8 9 12 15 18 22 25 28 29 30 30 28 26 22 19 18 23
8 8 9 8 6 5 5 6 7 7 10 7 6 7 8 7 3 2 3 3 3 8 11 14 18 21 24 27 29 29 29 28 26 24 19 17 23 29
11 10 10 9 7 6 6 8 7 7 9 11 7 5 7 6 3 3 3 3 2 8 12 16 21 24 27 30 29 25 24 23 22 19 17 25 30 33
12 11 11 9 8 7 8 8 7 8 7 9 8 5 4 3 2 4 5 3 4 7 10 14 20 26 31 35 19 12 16 19 19 22 29 32 33 32
12 11 10 7 7 8 8 8 8 9 8 8 8 5 4 2 3 3 4 4 5 6 8 11 18 26 32 32 7 15 20 24 28 31 32 32 33 34
12 9 8 11 13 10 10 9 10 9 9 8 7 6 4 3 3 4 5 5 5 4 4 8 10 13 19 24 18 28 32 34 36 36 36 36 36 36
11 8 8 9 14 18 20 21 20 15 11 9 7 6 5 4 5 6 6 3 3 3 4 8 9 12 14 15 26 34 37 39 39 39 39 38 37 35
10 8 8 10 13 12 18 23 20 21 20 12 8 6 5 5 8 7 5 4 4 2 2 7 8 11 11 17 31 34 37 39 39 39 38 38 37 35
10 7 7 10 11 15 16 16 15 13 10 8 6 5 6 9 8 9 11 10 8 6 4 6 7 9 11 12 26 31 33 36 37 37 37 37 35 34
12 8 8 10 16 19 16 15 14 7 1 5 6 9 15 17 15 12 10 10 9 5 4 6 7 8 10 10 18 30 31 32 34 35 35 34 32 29
12 9 10 13 18 17 13 12 11 5 5 7 10 14 14 14 13 10 9 10 9 6 4 5 6 4 8 8 8 11 16 25 28 28 27 25 22 16
11 9 9 17 18 14 12 10 9 3 6 9 9 10 9 8 8 8 6 4 7 8 5 2 3 3 6 6 6 7 8 9 10 12 15 18 17 14
10 9 10 17 16 11 10 12 10 5 6 7 8 8 8 8 8 9 10 10 10 11 7 6 7 6 8 9 7 6 6 7 7 8 9 15 16 17
10 16 17 16 11 7 12 14 8 4 5 6 8 8 8 9 10 11 12 12 13 12 10 8 6 6 6 7 8 8 8 7 6 7 7 8 7 7
11 13 13 11 8 6 8 9 7 6 5 7 8 9 8 8 9 9 9 9 11 10 7 6 6 6 6 6 7 8 5 5 5 6 7 8 9 10
12 6 6 7 7 5 5 7 7 6 6 6 7 9 9 9 8 5 6 8 10 10 8 5 5 5 6 6 8 8 7 7 6 7 9 11 11 10
10 6 7 7 7 6 5 5 6 6 6 6 7 7 8 9 8 6 7 8 8 8 8 7 7 7 7 9 8 7 6 5 6 8 9 10 10 8
7 7 7 7 7 5 5 5 5 5 5 6 7 7 8 8 8 8 8 7 6 7 7 7 7 7 10 10 6 5 5 5 6 8 8 8 8 7
8 7 7 7 7 5 5 5 4 4 5 6 6 7 8 7 7 7 7 7 6 7 7 6 5 5 7 9 7 5 5 7 8 8 9 8 7 9
8 8 8 7 7 6 5 5 6 6 6 5 6 7 6 6 6 6 6 8 6 5 6 6 7 10 7 6 7 7 8 11 9 6 8 7 6 5
8 8 8 8 7 6 5 5 5 6 6 6 5 5 5 4 5 6 5 5 4 5 7 7 7 8 8 10 10 10 9 7 10 13 9 3 5 5
7 7 7 8 7 5 5 5 5 5 5 5 5 5 5 4 4 5 5 5 5 7 7 6 7 8 8 8 8 8 9 7 5 6 6 11 15 20
Wind_Direction
293 292 286 280 278 277 275 274 281 288 286 283 289 292 295 294 308 315 212 131 99 58 22 353 334 318 305 293 282 272 263 256 251 245 241 247 229 187
286 282 282 281 282 279 277 274 270 276 280 268 278 283 287 290 303 313 126 119 83 54 21 358 341 326 314 301 286 271 258 248 241 236 232 236 197 157
297 292 289 283 276 277 284 279 270 267 277 278 273 279 277 282 285 109 105 95 67 37 15 357 346 334 322 309 290 270 251 236 227 221 219 200 153 139
312 304 299 293 277 278 278 276 270 263 271 279 277 273 273 276 209 146 114 88 49 25 11 357 349 340 330 319 295 263 233 213 204 199 173 141 132 131
306 300 297 292 281 279 279 277 271 269 263 274 277 262 258 248 171 120 92 64 44 24 14 358 352 349 342 330 298 224 184 176 168 148 130 127 127 126
301 292 289 289 290 294 295 292 290 284 271 268 270 258 238 199 141 125 100 67 49 31 20 8 2 1 351 343 36 119 126 127 123 118 117 118 115 114
310 315 326 325 320 316 308 301 295 285 275 262 259 251 221 175 148 127 116 104 66 29 24 21 11 7 356 357 52 92 98 102 103 106 106 106 106 106
321 327 328 329 324 316 310 306 298 287 274 257 247 237 203 154 134 136 134 133 96 22 37 40 28 25 7 13 49 77 88 93 97 99 100 101 101 101
323 324 332 329 323 316 311 306 298 286 270 251 237 219 173 147 141 131 111 93 92 83 53 56 38 41 23 32 51 67 80 87 90 93 95 96 96 95
321 326 336 328 324 323 313 307 304 293 267 228 213 187 144 137 130 121 116 103 82 53 43 73 54 50 42 41 54 66 76 84 89 91 91 91 92 93
321 326 342 331 327 326 320 316 317 321 338 160 152 133 129 129 129 124 123 115 100 71 44 83 85 74 60 57 61 70 77 84 89 91 93 93 92 90
319 329 341 336 330 329 326 322 324 356 72 90 99 105 113 119 119 123 128 125 118 100 76 97 113 101 80 64 66 67 73 81 87 91 93 93 94 97
321 331 332 331 330 331 331 329 335 18 84 91 96 100 104 102 93 87 82 97 108 110 135 111 107 93 105 115 99 98 99 98 96 95 98 104 106 108
323 329 327 328 333 350 349 345 359 49 90 97 100 102 103 102 98 94 91 88 93 103 104 103 111 111 112 108 101 96 93 96 101 102 103 103 106 115
330 330 332 335 347 8 354 355 10 49 85 98 101 101 100 104 103 103 104 101 98 98 96 93 98 99 99 107 106 107 105 100 104 112 117 119 124 123
332 327 331 342 3 13 3 4 23 46 70 88 98 103 105 108 110 115 118 115 111 110 107 104 99 98 101 100 103 104 95 98 102 98 97 90 80 74
327 331 352 355 358 14 28 19 24 43 65 81 98 108 112 113 114 110 111 115 119 126 132 132 115 99 88 86 98 96 95 92 91 90 89 85 74 71
346 357 359 355 356 17 44 40 36 43 56 70 87 103 112 116 112 100 102 110 119 129 131 125 116 103 88 68 71 100 98 100 94 91 90 91 86 76
359 0 359 355 357 14 43 55 57 57 62 70 82 93 103 107 106 108 112 114 111 113 120 124 125 125 118 109 89 88 113 112 102 97 93 95 98 95
359 358 357 355 357 11 40 57 66 72 76 80 81 87 96 100 103 107 114 121 120 120 122 125 123 125 127 124 119 97 75 100 100 100 96 90 87 95
353 356 356 356 1 15 39 47 58 79 85 88 91 96 100 102 106 112 119 132 127 126 123 117 116 117 104 96 93 83 65 68 90 116 129 130 136 137
352 352 352 356 3 15 27 42 55 67 73 76 81 95 110 111 114 123 130 129 119 114 112 115 123 112 105 107 109 107 99 87 78 77 64 104 169 150
348 346 345 348 358 11 19 37 57 69 69 64 65 84 108 104 96 102 111 114 115 118 119 116 109 110 116 118 115 118 125 120 99 75 45 35 84 101